Terminal Aerodrome Forecast
Issued by NWS

Home | Current Version | Previous Version | Text Only | Print | Product List | Glossary On
Versions: 1 2 3 4 5 6 7 8 9 10 11 12 13 14 15 16 17 18 19 20 21 22 23 24 25 26 27 28 29 30 31 32 33 34 35 36 37 38 39 40 41 42 43 44 45 46 47 48 49 50
000
FTAK31 PANC 282109 AAC
TAFASN
TAF AMD
PASN 282109Z 2821/2918 04007KT 6SM BR BKN008 OVC012
      TEMPO 2821/2823 4SM BR BKN006
     FM282300 03008KT 2SM BR SCT002 OVC004
     FM290300 02007KT 1SM BR OVC002
     FM290800 01004KT 1/2SM FG OVC002=

USA.gov is the U.S. government's official web portal to all federal, state and local government web resources and services.